Miscellaneous Local Product
Issued by NWS North Platte, NE

Home | Current Version | Previous Version | Graphics & Text | Print | Product List | Glossary On
Versions: 1 2 3 4 5 6 7 8 9 10 11 12 13 14 15 16 17 18 19 20 21 22 23 24 25 26 27 28 29 30 31 32 33 34 35 36 37 38 39 40 41 42 43 44 45 46 47 48 49 50
000
AXUS43 KLBF 180410
MISLBF


WESTERN AND NORTH CENTRAL NEBRASKA HOURLY WEATHER ROUNDUP
NATIONAL WEATHER SERVICE NORTH PLATTE NE
1100 PM CDT WED SEP 17 2014

***STATIONS NOT REPORTING VARIABLES SUCH AS SKY/WEATHER OR
PRESSURE ARE PROVIDED BY THE NEBRASKA DEPARTMENT OF
ROADS...RAWS...AND APRS NETWORKS...AND ARE NOT UNDER
NATIONAL WEATHER SERVICE QUALITY CONTROL***

...OBSERVATIONS IN AND NEAR THE EASTERN PANHANDLE OF NEBRASKA...

CITY           SKY/WX    TMP DP  RH WIND       PRES   REMARKS
PINE RIDGE     MOCLDY    66  53  63 E13       29.96R
CHADRON        CLEAR     67  52  58 SW5       29.93S
ALLIANCE       PTCLDY    60  52  74 SE9       29.97R
SIDNEY         PTCLDY    65  48  54 E8        30.01R
WHITECLAY        N/A     66  52  59 SE12        N/A
RUSHVILLE        N/A     63  48  59 SE12        N/A
LISCO            N/A     72  58  61 E7          N/A
BIG SPRINGS      N/A     66  60  81 CALM        N/A
$$

...OBSERVATIONS IN NORTH CENTRAL NEBRASKA...

CITY           SKY/WX    TMP DP  RH WIND       PRES   REMARKS
VALENTINE      PTCLDY    63  54  72 E10       29.97S
THEDFORD       CLEAR     66  59  78 SE10      29.96S
AINSWORTH      CLEAR     61  55  81 E9        29.97S
O`NEILL        CLEAR     65  58  79 E8        29.98S
ORD            PTCLDY    61  58  90 SE3       29.95S
BROKEN BOW     CLEAR     62  59  90 SE6       29.97R
SPRINGVIEW       N/A     63  57  80 E3          N/A
ROSE             N/A     67  63  86 NE8         N/A
NEWPORT          N/A     60  57  89 E7          N/A
COMSTOCK         N/A     68  66  93 SE3         N/A
CHAMBERS         N/A     63  57  82 E3          N/A
$$

...OBSERVATIONS IN SOUTHWEST NEBRASKA AND FAR NORTHEAST COLORADO...

CITY           SKY/WX    TMP DP  RH WIND       PRES   REMARKS
WRAY           FAIR      67  59  74 E7        29.96R
HOLYOKE        FAIR      68  59  73 E9        29.97R
IMPERIAL       PTCLDY    67  59  75 SE8       29.96R
OGALLALA       MOCLDY    71  62  74 SE8       29.96S
NORTH PLATTE   CLEAR     64  60  87 SE9       29.96R
MCCOOK         CLEAR     66  61  84 E7        29.94R
LEXINGTON      CLEAR     61  58  92 E6        29.97R
PAXTON           N/A     66  60  82 CALM        N/A
SUTHERLAND       N/A     66  61  84 SE6         N/A
BRADY            N/A     64  59  85 CALM        N/A
GOTHENBURG       N/A     66  58  76 E3          N/A
CALLAWAY         N/A     65  61  87 SE8         N/A
$$

...SOME WEATHER OBSERVATIONS FROM AROUND THE REGION...

CITY           SKY/WX    TMP DP  RH WIND       PRES   REMARKS
DENVER         PTCLDY    66  42  41 SW8G17    30.09S
LARAMIE        CLEAR     53  40  61 S12       30.19S
CHEYENNE       CLEAR     58  41  53 W8        30.12S
SCOTTSBLUFF    CLEAR     59  48  67 CALM      29.97R
RAPID CITY     CLEAR     62  51  67 CALM      29.99R
PIERRE         PTCLDY    60  45  57 E5        29.93S
WINNER         FAIR      64  56  75 E9        29.97R
SIOUX FALLS    PTCLDY    59  54  83 CALM      29.98S
OMAHA          CLEAR     67  58  72 E9        29.97R
GRAND ISLAND   PTCLDY    62  59  90 E6        29.96S
KANSAS CITY    CLEAR     66  63  90 E5        29.96R
WICHITA        CLOUDY    79  68  69 E9        29.85S
HAYS           MOCLDY    72  64  78 E14       29.90F
LIBERAL        CLOUDY    72  59  64 SW8       29.95R
GOODLAND       CLEAR     63  54  72 S12       29.96S
$$



USA.gov is the U.S. government's official web portal to all federal, state and local government web resources and services.